Regional Weather Roundup
Issued by NWS Green Bay, WI

Home | Current Version | Previous Version | Graphics & Text | Print | Product List | Glossary Off
Versions: 1 2 3 4 5 6 7 8 9 10 11 12 13 14 15 16 17 18 19 20 21 22 23 24 25 26 27 28 29 30 31 32 33 34 35 36 37 38 39 40 41 42 43 44 45 46 47 48 49 50

000
ASUS43 KGRB 062000
RWRGRB

NORTH-CENTRAL AND NORTHEAST WISCONSIN REGIONAL WEATHER ROUNDUP
NATIONAL WEATHER SERVICE GREEN BAY WI
300 PM CDT FRI MAY 06 2016

WIZ005-009-010>012-018-019-062100-
NORTH CENTRAL WISCONSIN

CITY           SKY/WX    TMP DP  RH WIND       PRES   REMARKS
IRONWOOD         N/A     90  30  12 W16G23    29.65F
MANITOWISH WTR NOT AVBL
ARBOR VITAE    NOT AVBL
EAGLE RIVER    NOT AVBL
LAND O LAKES   NOT AVBL
RHINELANDER    SUNNY     87  34  15 SW13G20   29.75F
PHILLIPS       SUNNY     86  42  21 W9G20     29.74F
ANTIGO         NOT AVBL
TOMAHAWK       NOT AVBL
MERRILL        SUNNY     87  42  20 W13G23    29.76F
$$

WIZ013-073-062100-
NORTHEAST WISCONSIN

CITY           SKY/WX    TMP DP  RH WIND       PRES   REMARKS
IRON MOUNTAIN  SUNNY     89  41  18 W13       29.70F
MARINETTE      SUNNY     72  48  43 E12       29.76F
$$

WIZ017-030-035>037-045-062100-
CENTRAL WISCONSIN

CITY           SKY/WX    TMP DP  RH WIND       PRES   REMARKS
MEDFORD        NOT AVBL
WAUSAU         SUNNY     88  41  19 W12G20    29.75F
MOSINEE        SUNNY     84  43  23 SW12G17   29.79F
MARSHFIELD     SUNNY     88  42  20 W10G20    29.77F
WISC RAPIDS    SUNNY     89  34  14 W13G22    29.79F
STEVENS POINT  NOT AVBL
WAUPACA        SUNNY     88  39  17 W12G17    29.78F
SHAWANO        SUNNY     87  44  22 S6        29.76F
CLINTONVILLE   NOT AVBL
WAUTOMA        SUNNY     87  45  23 VRB7G17   29.78F
$$

WIZ038-039-048-051-062100-
FOX VALLEY

CITY           SKY/WX    TMP DP  RH WIND       PRES   REMARKS
NWS GREEN BAY  SUNNY     83  46  27 VRB3      29.77F
APPLETON       MOSUNNY   82  39  21 W14       29.78F
OSHKOSH        SUNNY     81  47  30 W9        29.79F
FOND DU LAC    SUNNY     81  45  28 W10       29.80F
$$

WIZ022-050-052-062100-
EAST CENTRAL WISCONSIN

CITY           SKY/WX    TMP DP  RH WIND       PRES   REMARKS
EPHRAIM        NOT AVBL
STURGEON BAY   SUNNY     66  45  45 S17G24    29.81F
MANITOWOC      NOT AVBL
SHEBOYGAN      SUNNY     72  48  42 SE12      29.81F
$$

LMZ563-521-522-541>543-062100-
LAKESHORE

STATION/POSITION TIME  TEMP    WIND        PRES    VSBY  WAVE
                       AIR SEA DIR/SP/G                  HT/PER
                 (UTC) (F)     (DEG/KT/KT) (MB)    (MI)  (FT/S)
SHEBOYGAN LKSHOR 1900   48     160/ 18/ 19 1010.7F
KEWAUNEE LKSHORE 1900   47     170/ 15/ 17 1009.5F
ALGOMA MARINA    1915          210/ 15/ 17   N/A
NORTHPORT PIER   1900   54     150/ 11/ 15 1009.5F
N MID LAKE BUOY  1850   44 39  180/ 14/ 16 1009.9F         2/ 4
SISTER BAY LKSHO 1919   67     180/ 17/ 20   N/A
CHAMBERS ISLAND  1900   71     160/  8/ 16 1008.8
MENOMINEE LKSHOR 1900   56     150/ 11/ 13 1007.6F
$$



USA.gov is the U.S. government's official web portal to all federal, state and local government web resources and services.